owner,sensor,date,latitude,longitude,vertical_datum,wind_speed,wind_to_direction,wind_speed_of_gust,qcFlag 
TABS,ioos:station:wmo:42044:1,2003-10-01T00:09:00Z,26.1914,-97.0507,0.0,5.190616534,54.01286759,7.72,'11111222,11111222,11111222' 
TABS,ioos:station:wmo:42044:1,2003-10-01T00:39:00Z,26.1914,-97.0507,0.0,5.512395124,52.44374953,8.35,'11111222,11111222,11111222' 
TABS,ioos:station:wmo:42044:1,2003-10-01T01:09:00Z,26.1914,-97.0507,0.0,5.923723491,51.09817262,9.41,'11111222,11111222,11111222' 
TABS,ioos:station:wmo:42044:1,2003-10-01T01:39:00Z,26.1914,-97.0507,0.0,5.324828636,60.40157627,8.68,'11111222,11111222,11111222' 
TABS,ioos:station:wmo:42044:1,2003-10-01T02:09:00Z,26.1914,-97.0507,0.0,5.868398419,47.69315099,8.62,'11111222,11111222,11111222' 
TABS,ioos:station:wmo:42044:1,2003-10-01T02:39:00Z,26.1914,-97.0507,0.0,5.728184704,53.58988341,8.59,'11111222,11111222,11111222' 
TABS,ioos:station:wmo:42044:1,2003-10-01T03:09:00Z,26.1914,-97.0507,0.0,5.514571606,47.71899995,8.31,'11111222,11111222,11111222' 
TABS,ioos:station:wmo:42044:1,2003-10-01T03:39:00Z,26.1914,-97.0507,0.0,5.716091322,58.81242073,8.47,'11111222,11111222,11111222' 
TABS,ioos:station:wmo:42044:1,2003-10-01T04:09:00Z,26.1914,-97.0507,0.0,5.598365833,52.47475487,8.48,'11111222,11111222,11111222' 
TABS,ioos:station:wmo:42044:1,2003-10-01T04:39:00Z,26.1914,-97.0507,0.0,5.604462508,68.65384235,8.87,'11111222,11111222,11111222' 
TABS,ioos:station:wmo:42044:1,2003-10-01T05:09:00Z,26.1914,-97.0507,0.0,5.541299487,68.6206339,8.23,'11111222,11111222,11111222' 
TABS,ioos:station:wmo:42044:1,2003-10-01T05:39:00Z,26.1914,-97.0507,0.0,5.266355476,70.36043776,8.88,'11111222,11111222,11111222' 
TABS,ioos:station:wmo:42044:1,2003-10-01T06:09:00Z,26.1914,-97.0507,0.0,5.46561067,62.54381298,8.56,'11111222,11111222,11111222' 
TABS,ioos:station:wmo:42044:1,2003-10-01T06:39:00Z,26.1914,-97.0507,0.0,5.633515776,57.09943596,8.72,'11111222,11111222,11111222' 
TABS,ioos:station:wmo:42044:1,2003-10-01T07:09:00Z,26.1914,-97.0507,0.0,5.778312903,46.19171055,8.72,'11111222,11111222,11111222' 
TABS,ioos:station:wmo:42044:1,2003-10-01T07:39:00Z,26.1914,-97.0507,0.0,5.845630847,51.11025127,8.34,'11111222,11111222,11111222' 
TABS,ioos:station:wmo:42044:1,2003-10-01T08:09:00Z,26.1914,-97.0507,0.0,5.554043572,52.90281454,8.29,'11111222,11111222,11111222' 
TABS,ioos:station:wmo:42044:1,2003-10-01T08:39:00Z,26.1914,-97.0507,0.0,5.360037313,45.45320238,8.26,'11111222,11111222,11111222' 
TABS,ioos:station:wmo:42044:1,2003-10-01T09:09:00Z,26.1914,-97.0507,0.0,5.447825254,43.06576092,8.76,'11111222,11111222,11111222' 
TABS,ioos:station:wmo:42044:1,2003-10-01T09:39:00Z,26.1914,-97.0507,0.0,6.422413876,43.61173538,9.67,'11111222,11111222,11111222' 
TABS,ioos:station:wmo:42044:1,2003-10-01T10:09:00Z,26.1914,-97.0507,0.0,6.832422704,46.30432856,9.39,'11111222,11111222,11111222' 
TABS,ioos:station:wmo:42044:1,2003-10-01T10:39:00Z,26.1914,-97.0507,0.0,6.798955802,48.21917168,9.81,'11111222,11111222,11111222' 
TABS,ioos:station:wmo:42044:1,2003-10-01T11:09:00Z,26.1914,-97.0507,0.0,6.729138132,42.89196305,10.25,'11111222,11111222,11111222' 
TABS,ioos:station:wmo:42044:1,2003-10-01T11:39:00Z,26.1914,-97.0507,0.0,6.665643255,54.40203083,10.28,'11111222,11111222,11111222' 
TABS,ioos:station:wmo:42044:1,2003-10-01T12:09:00Z,26.1914,-97.0507,0.0,6.615081254,46.89863043,10.05,'11111222,11111222,11111222' 
TABS,ioos:station:wmo:42044:1,2003-10-01T12:39:00Z,26.1914,-97.0507,0.0,7.188163882,49.7960793,10.78,'11111222,11111222,11111222' 
TABS,ioos:station:wmo:42044:1,2003-10-01T13:09:00Z,26.1914,-97.0507,0.0,6.597401003,44.69263663,10.71,'11111222,11111222,11111222' 
TABS,ioos:station:wmo:42044:1,2003-10-01T13:39:00Z,26.1914,-97.0507,0.0,6.945862078,43.59966211,10.34,'11111222,11111222,11111222' 
TABS,ioos:station:wmo:42044:1,2003-10-01T14:09:00Z,26.1914,-97.0507,0.0,6.784128537,55.93480814,10.18,'11111222,11111222,11111222' 
TABS,ioos:station:wmo:42044:1,2003-10-01T14:39:00Z,26.1914,-97.0507,0.0,6.966907492,47.90854661,10.26,'11111222,11111222,11111222' 
TABS,ioos:station:wmo:42044:1,2003-10-01T15:09:00Z,26.1914,-97.0507,0.0,6.659016444,47.25138185,9.89,'11111222,11111222,11111222' 
TABS,ioos:station:wmo:42044:1,2003-10-01T15:39:00Z,26.1914,-97.0507,0.0,6.736653472,48.42970473,10.16,'11111222,11111222,11111222' 
TABS,ioos:station:wmo:42044:1,2003-10-01T16:09:00Z,26.1914,-97.0507,0.0,6.783575753,40.99492495,10.19,'11111222,11111222,11111222' 
TABS,ioos:station:wmo:42044:1,2003-10-01T16:39:00Z,26.1914,-97.0507,0.0,7.286000274,36.85387337,10.53,'11111222,11111222,11111222' 
TABS,ioos:station:wmo:42044:1,2003-10-01T17:09:00Z,26.1914,-97.0507,0.0,6.660397886,34.78735317,10.29,'11111222,11111222,11111222' 
TABS,ioos:station:wmo:42044:1,2003-10-01T17:39:00Z,26.1914,-97.0507,0.0,6.689850521,34.09359663,9.69,'11111222,11111222,11111222' 
TABS,ioos:station:wmo:42044:1,2003-10-01T18:09:00Z,26.1914,-97.0507,0.0,6.476241194,33.34625391,10.42,'11111222,11111222,11111222' 
TABS,ioos:station:wmo:42044:1,2003-10-01T18:39:00Z,26.1914,-97.0507,0.0,7.292845809,31.77191924,10.47,'11111222,11111222,11111222' 
TABS,ioos:station:wmo:42044:1,2003-10-01T19:09:00Z,26.1914,-97.0507,0.0,7.527084429,32.19067673,11.22,'11111222,11111222,11111222' 
TABS,ioos:station:wmo:42044:1,2003-10-01T19:39:00Z,26.1914,-97.0507,0.0,7.152873548,32.09000544,10.36,'11111222,11111222,11111222' 
TABS,ioos:station:wmo:42044:1,2003-10-01T20:09:00Z,26.1914,-97.0507,0.0,7.683176426,26.76487899,11.15,'11111222,11111222,11111222' 
TABS,ioos:station:wmo:42044:1,2003-10-01T20:39:00Z,26.1914,-97.0507,0.0,7.541936091,25.27363626,11.56,'11111222,11111222,11111222' 
TABS,ioos:station:wmo:42044:1,2003-10-01T21:09:00Z,26.1914,-97.0507,0.0,8.153882511,21.81419647,12.15,'11111222,11111222,11111222' 
TABS,ioos:station:wmo:42044:1,2003-10-01T21:39:00Z,26.1914,-97.0507,0.0,8.075301852,28.15150982,11.6,'11111222,11111222,11111222' 
TABS,ioos:station:wmo:42044:1,2003-10-01T22:09:00Z,26.1914,-97.0507,0.0,8.771271288,23.23263457,12.2,'11111222,11111222,11111222' 
TABS,ioos:station:wmo:42044:1,2003-10-01T22:39:00Z,26.1914,-97.0507,0.0,8.741081169,23.1036508,13.35,'11111222,11111222,11111222' 
TABS,ioos:station:wmo:42044:1,2003-10-01T23:09:00Z,26.1914,-97.0507,0.0,8.700143677,25.38662806,12.45,'11111222,11111222,11111222' 
TABS,ioos:station:wmo:42044:1,2003-10-01T23:39:00Z,26.1914,-97.0507,0.0,8.613042436,35.97817076,13.26,'11111222,11111222,11111222' 
TABS,ioos:station:wmo:42044:1,2003-10-02T00:09:00Z,26.1914,-97.0507,0.0,8.970752477,34.64638848,12.9,'11111222,11111222,11111222' 
TABS,ioos:station:wmo:42044:1,2003-10-02T00:39:00Z,26.1914,-97.0507,0.0,8.204108727,41.44184077,12.44,'11111222,11111222,11111222' 
 
DISCLAIMER: The Gulf of Mexico Coastal and Ocean Observing (GCOOS) Data Portal aggregates data from the regional data providers for the convenience of all data users. Data published on this website should not be used for navigation or certain other uses as we cannot guarantee data accuracy or availability. The data and delivery services are provided 'as is' without warranty of any kind. Data Source: Gulf of Mexico Coastal Ocean Observing System Data Portal (http://data.gcoos.org/) 
